Location: Unspecified
(0.0000°N, 0.0000°E)
Time: 23:54:13
(UTC+00:00)

S-56A Canister/Altair - Pass Details

Date: 10 October 2020
Orbit: 633 x 2499 km, 38.9° (Epoch: 28 October)

Event Time Altitude Azimuth Distance (km) Brightness Sun altitude
Rises 15:01:15 0° 335° (NNW) 6,146 12.3 41.0°
Reaches altitude 10° 15:12:48 10° 14° (NNE) 5,060 11.6 38.2°
Maximum altitude 15:13:56 10° 18° (NNE) 5,022 11.5 37.9°
Drops below altitude 10° 15:15:03 10° 23° (NNE) 4,999 11.5 37.6°
Sets 15:25:22 0° 63° (ENE) 5,540 11.4 35.1°
